Temp
-3 -4 -4 -4 -4 -6 -7 -7 -6 -7 -7 -7 -7 -7 -6 -6 -6 -6 -6 -6 -6 -5 -5 -6 -6 -6 -7 -7 -7 -7 -7 -7 -7 -7 -7 -7 -7 -7 -7 -7 -7 -7 -7 -7
-3 -4 -4 -5 -6 -6 -7 -7 -7 -7 -7 -7 -6 -7 -6 -6 -6 -6 -7 -6 -6 -6 -6 -6 -6 -6 -7 -7 -7 -7 -7 -7 -7 -7 -7 -7 -7 -7 -7 -7 -7 -7 -7 -7
-2 -4 -5 -6 -6 -7 -7 -8 -8 -7 -7 -7 -7 -7 -6 -6 -7 -7 -7 -6 -5 -6 -6 -6 -6 -6 -6 -6 -7 -7 -7 -7 -7 -7 -7 -6 -7 -7 -7 -6 -6 -7 -7 -7
-3 -5 -5 -6 -6 -6 -7 -7 -7 -7 -7 -7 -7 -7 -7 -6 -6 -6 -7 -7 -6 -6 -6 -6 -6 -6 -7 -7 -7 -7 -7 -7 -7 -7 -7 -7 -7 -7 -7 -7 -7 -7 -7 -7
-2 -4 -4 -5 -5 -6 -7 -7 -7 -7 -7 -7 -7 -7 -7 -7 -6 -6 -7 -7 -7 -6 -6 -6 -6 -6 -6 -7 -7 -7 -7 -7 -7 -7 -7 -7 -7 -7 -6 -7 -7 -7 -7 -7
-3 -4 -5 -5 -6 -6 -7 -7 -7 -7 -7 -7 -7 -7 -7 -7 -7 -7 -7 -7 -6 -7 -7 -7 -6 -7 -7 -7 -7 -7 -7 -7 -7 -7 -7 -7 -7 -7 -7 -7 -7 -7 -7 -7
-4 -4 -5 -5 -6 -6 -7 -7 -7 -7 -7 -7 -7 -7 -7 -7 -7 -7 -7 -7 -7 -7 -7 -7 -8 -7 -8 -7 -7 -7 -7 -7 -7 -7 -7 -7 -7 -7 -7 -8 -7 -7 -8 -8
-4 -4 -4 -5 -6 -6 -7 -7 -7 -7 -7 -6 -6 -7 -6 -7 -7 -7 -7 -7 -7 -7 -7 -7 -8 -8 -9 -9 -8 -8 -7 -7 -7 -7 -7 -7 -7 -8 -8 -8 -7 -7 -8 -8
-4 -4 -5 -5 -6 -6 -7 -7 -7 -7 -7 -7 -7 -7 -7 -7 -7 -7 -7 -7 -7 -7 -7 -8 -7 -7 -8 -8 -7 -7 -7 -7 -7 -7 -7 -7 -8 -8 -8 -8 -8 -8 -8 -8
-5 -5 -5 -6 -7 -7 -7 -7 -7 -8 -7 -7 -7 -7 -7 -7 -7 -7 -7 -7 -7 -7 -7 -8 -7 -8 -8 -7 -7 -7 -7 -7 -7 -7 -7 -7 -7 -7 -8 -8 -8 -8 -8 -8
-6 -6 -6 -7 -7 -7 -7 -8 -8 -7 -7 -7 -7 -7 -7 -7 -7 -7 -7 -8 -8 -8 -7 -8 -8 -8 -7 -7 -8 -8 -8 -8 -8 -8 -8 -8 -8 -8 -7 -8 -8 -8 -8 -8
-6 -7 -7 -6 -7 -7 -8 -7 -8 -7 -8 -7 -7 -7 -7 -7 -7 -7 -8 -8 -8 -7 -7 -7 -7 -8 -8 -8 -8 -8 -8 -8 -8 -8 -8 -9 -8 -8 -8 -9 -9 -8 -8 -9
-8 -8 -7 -7 -7 -7 -7 -7 -7 -8 -7 -7 -7 -7 -7 -7 -7 -7 -8 -8 -7 -7 -7 -7 -8 -8 -8 -8 -7 -7 -7 -8 -8 -8 -8 -9 -9 -9 -9 -9 -9 -9 -9 -9
-8 -8 -7 -6 -6 -7 -7 -7 -7 -7 -8 -7 -7 -7 -7 -7 -8 -8 -8 -8 -7 -8 -8 -8 -7 -8 -7 -8 -7 -7 -8 -8 -9 -9 -9 -9 -9 -9 -9 -9 -9 -9 -9 -9
-8 -8 -8 -7 -7 -7 -8 -8 -7 -8 -7 -8 -7 -7 -7 -7 -7 -7 -8 -8 -8 -8 -7 -7 -8 -7 -7 -7 -8 -7 -8 -9 -9 -9 -9 -9 -10 -10 -10 -9 -9 -9 -9 -9
-8 -8 -8 -7 -7 -8 -7 -7 -7 -8 -8 -8 -8 -8 -8 -8 -8 -8 -8 -8 -8 -7 -8 -8 -7 -7 -7 -8 -8 -7 -7 -9 -9 -9 -9 -10 -10 -10 -10 -10 -10 -10 -10 -9
-8 -8 -8 -8 -8 -8 -9 -8 -8 -8 -8 -8 -8 -7 -8 -8 -8 -8 -8 -8 -8 -8 -9 -8 -7 -8 -8 -8 -7 -8 -8 -8 -8 -9 -9 -10 -10 -10 -11 -11 -11 -10 -10 -10
-8 -8 -8 -8 -8 -8 -8 -9 -9 -8 -8 -9 -8 -8 -8 -8 -8 -8 -8 -8 -8 -8 -8 -8 -9 -8 -9 -8 -8 -8 -8 -8 -9 -9 -10 -10 -10 -10 -10 -11 -11 -10 -11 -12
-8 -8 -8 -8 -9 -8 -8 -9 -9 -10 -9 -8 -8 -8 -8 -8 -8 -8 -8 -8 -8 -8 -8 -9 -8 -9 -9 -8 -8 -8 -8 -8 -9 -9 -10 -10 -11 -10 -11 -12 -11 -11 -12 -12
-9 -8 -8 -8 -8 -8 -8 -8 -8 -8 -9 -10 -8 -8 -8 -8 -8 -8 -8 -8 -8 -9 -9 -9 -9 -9 -8 -8 -8 -8 -8 -8 -8 -9 -10 -10 -11 -11 -12 -12 -11 -13 -13 -12
-9 -9 -9 -9 -9 -9 -8 -8 -8 -8 -8 -8 -8 -9 -9 -9 -9 -9 -9 -9 -9 -9 -9 -9 -10 -10 -9 -10 -9 -8 -8 -8 -9 -9 -10 -10 -11 -12 -13 -11 -12 -13 -13 -12
-10 -10 -10 -9 -9 -9 -9 -9 -9 -8 -8 -8 -9 -9 -8 -9 -10 -9 -8 -9 -9 -9 -9 -10 -10 -9 -9 -9 -8 -8 -9 -10 -10 -10 -11 -11 -11 -12 -13 -13 -11 -13 -13 -13
-11 -11 -10 -10 -10 -10 -10 -10 -9 -9 -9 -9 -10 -10 -9 -9 -9 -10 -9 -10 -10 -10 -9 -10 -9 -8 -8 -9 -8 -8 -9 -10 -10 -10 -11 -11 -12 -11 -10 -11 -12 -12 -13 -13
-11 -10 -10 -11 -11 -10 -10 -10 -10 -11 -10 -9 -10 -10 -11 -10 -10 -9 -9 -9 -10 -11 -11 -10 -10 -9 -9 -9 -9 -10 -10 -11 -11 -11 -11 -12 -12 -11 -11 -12 -12 -13 -13 -13
-11 -10 -10 -11 -10 -11 -10 -10 -10 -10 -11 -11 -11 -11 -11 -11 -10 -11 -10 -10 -10 -11 -11 -11 -11 -10 -9 -10 -10 -10 -10 -11 -11 -11 -11 -12 -12 -12 -12 -12 -13 -14 -14 -13
-12 -12 -12 -11 -10 -11 -12 -12 -11 -11 -12 -11 -11 -11 -11 -11 -11 -11 -11 -11 -11 -11 -11 -10 -10 -10 -10 -11 -11 -11 -11 -11 -11 -12 -12 -12 -12 -12 -13 -14 -14 -14 -14 -14
Height
5899 5902 5906 5911 5914 5915 5916 5921 5923 5925 5924 5925 5927 5929 5931 5932 5930 5932 5933 5932 5930 5928 5928 5929 5929 5928 5929 5929 5929 5929 5930 5929 5929 5928 5927 5926 5925 5923 5922 5920 5919 5917 5915 5913
5895 5898 5907 5910 5911 5911 5914 5915 5920 5923 5923 5924 5925 5926 5930 5930 5928 5929 5929 5930 5929 5927 5927 5928 5929 5929 5928 5929 5929 5929 5929 5929 5928 5927 5926 5924 5923 5921 5919 5917 5916 5914 5913 5911
5893 5901 5902 5904 5907 5907 5909 5912 5917 5920 5923 5920 5921 5921 5926 5927 5927 5926 5925 5927 5927 5925 5925 5926 5927 5928 5927 5928 5928 5927 5927 5928 5927 5926 5924 5923 5920 5918 5916 5915 5913 5911 5909 5906
5888 5893 5893 5897 5901 5905 5906 5908 5916 5918 5917 5915 5918 5918 5920 5921 5922 5926 5925 5924 5926 5925 5925 5925 5925 5925 5925 5925 5926 5927 5927 5925 5924 5923 5921 5919 5917 5916 5914 5912 5910 5907 5904 5901
5885 5885 5887 5890 5896 5901 5906 5908 5911 5913 5915 5915 5913 5914 5918 5915 5917 5920 5922 5923 5924 5924 5922 5922 5924 5923 5922 5923 5924 5924 5923 5921 5920 5919 5917 5916 5915 5914 5911 5908 5906 5903 5901 5898
5876 5881 5882 5889 5895 5896 5902 5902 5907 5907 5908 5907 5910 5911 5910 5911 5913 5916 5920 5922 5922 5920 5918 5918 5919 5921 5919 5919 5919 5919 5919 5918 5916 5915 5914 5912 5910 5908 5905 5903 5900 5898 5894 5892
5864 5869 5876 5883 5888 5891 5893 5896 5899 5902 5899 5900 5906 5905 5907 5908 5910 5914 5916 5917 5917 5916 5916 5915 5913 5914 5914 5913 5913 5912 5912 5911 5910 5908 5908 5906 5904 5900 5898 5895 5894 5892 5889 5887
5856 5860 5866 5873 5877 5884 5886 5891 5892 5893 5895 5898 5902 5900 5907 5908 5909 5909 5909 5911 5911 5912 5909 5909 5908 5908 5908 5908 5907 5907 5907 5906 5905 5903 5902 5900 5898 5896 5893 5891 5888 5886 5884 5881
5848 5854 5862 5866 5873 5878 5882 5881 5888 5890 5891 5894 5899 5900 5900 5902 5903 5903 5903 5902 5906 5908 5905 5905 5904 5905 5905 5905 5903 5903 5902 5900 5900 5899 5896 5895 5893 5892 5890 5887 5884 5881 5878 5875
5846 5851 5856 5863 5867 5870 5873 5881 5881 5881 5885 5887 5889 5890 5892 5895 5897 5899 5899 5899 5900 5901 5901 5902 5902 5903 5904 5904 5903 5900 5897 5896 5896 5894 5892 5890 5888 5887 5884 5881 5878 5875 5871 5868
5839 5845 5852 5853 5854 5862 5867 5871 5875 5880 5881 5881 5883 5885 5887 5890 5891 5893 5894 5896 5894 5894 5897 5898 5896 5897 5899 5899 5898 5897 5894 5892 5891 5888 5887 5884 5882 5880 5878 5875 5871 5868 5865 5861
5830 5836 5842 5845 5852 5856 5863 5866 5869 5872 5875 5876 5878 5880 5881 5884 5886 5888 5890 5892 5893 5891 5894 5896 5893 5893 5891 5892 5892 5890 5888 5886 5884 5881 5881 5878 5875 5873 5871 5868 5864 5861 5857 5853
5822 5824 5836 5840 5845 5848 5853 5859 5864 5867 5871 5870 5874 5875 5877 5877 5879 5882 5883 5885 5887 5887 5886 5886 5887 5888 5888 5887 5885 5884 5883 5880 5877 5875 5873 5871 5868 5866 5864 5860 5856 5853 5850 5846
5818 5821 5827 5831 5838 5844 5849 5854 5858 5860 5862 5867 5868 5871 5870 5872 5873 5876 5877 5877 5879 5880 5882 5882 5883 5881 5880 5881 5879 5876 5874 5872 5869 5867 5866 5864 5861 5858 5855 5851 5848 5845 5842 5838
5809 5813 5822 5829 5835 5839 5842 5848 5851 5853 5857 5859 5865 5866 5865 5868 5869 5870 5870 5871 5874 5875 5875 5875 5874 5875 5874 5872 5873 5870 5866 5863 5861 5859 5858 5854 5851 5848 5846 5843 5840 5838 5834 5830
5798 5807 5817 5822 5828 5833 5835 5838 5845 5848 5852 5854 5858 5859 5861 5863 5864 5864 5865 5866 5866 5870 5870 5869 5870 5870 5868 5867 5865 5863 5860 5856 5852 5852 5851 5847 5841 5839 5837 5834 5833 5830 5826 5822
5794 5802 5810 5815 5821 5825 5827 5830 5836 5841 5839 5843 5847 5853 5857 5857 5858 5859 5859 5860 5860 5862 5861 5861 5861 5861 5859 5858 5858 5856 5852 5848 5845 5844 5841 5839 5836 5832 5828 5827 5825 5821 5817 5812
5788 5795 5803 5809 5815 5818 5823 5824 5828 5830 5834 5836 5842 5845 5850 5852 5854 5853 5854 5854 5856 5854 5854 5852 5852 5850 5849 5850 5849 5846 5844 5841 5837 5836 5834 5830 5827 5826 5821 5818 5815 5811 5806 5803
5783 5790 5794 5800 5808 5815 5819 5818 5821 5822 5826 5831 5834 5837 5841 5845 5847 5846 5847 5846 5846 5847 5846 5846 5846 5845 5844 5843 5840 5836 5835 5832 5828 5827 5825 5821 5818 5817 5810 5807 5804 5800 5797 5793
5777 5781 5789 5794 5801 5804 5808 5811 5815 5819 5819 5822 5825 5828 5832 5835 5838 5840 5839 5838 5838 5837 5836 5836 5839 5839 5837 5835 5832 5831 5828 5822 5819 5816 5813 5808 5808 5803 5796 5795 5792 5788 5786 5783
5768 5773 5779 5785 5790 5795 5799 5803 5808 5813 5814 5812 5817 5820 5823 5825 5826 5826 5829 5829 5829 5828 5826 5828 5830 5831 5828 5823 5822 5819 5815 5813 5808 5804 5801 5798 5794 5788 5782 5782 5780 5779 5778 5773
5756 5759 5766 5772 5780 5784 5789 5794 5801 5801 5802 5804 5806 5806 5812 5811 5813 5816 5816 5816 5815 5816 5818 5819 5818 5819 5819 5818 5812 5808 5804 5798 5796 5793 5787 5782 5775 5766 5764 5766 5770 5768 5764 5763
5748 5748 5755 5762 5768 5774 5780 5784 5789 5791 5795 5797 5796 5800 5802 5801 5804 5807 5806 5808 5805 5803 5807 5807 5806 5806 5804 5805 5800 5795 5791 5787 5782 5780 5774 5770 5766 5759 5761 5755 5761 5759 5755 5753
5741 5743 5746 5753 5761 5765 5771 5775 5777 5781 5784 5787 5788 5789 5792 5793 5794 5796 5796 5795 5794 5796 5797 5799 5799 5797 5794 5789 5786 5783 5781 5777 5774 5770 5765 5762 5759 5758 5747 5748 5747 5744 5741 5741
5731 5737 5743 5746 5753 5756 5757 5761 5768 5771 5775 5777 5777 5778 5780 5780 5778 5783 5784 5785 5785 5785 5788 5788 5788 5786 5781 5775 5770 5769 5767 5765 5761 5759 5756 5753 5747 5744 5743 5741 5734 5732 5730 5729
5724 5732 5737 5743 5748 5751 5755 5758 5760 5763 5767 5768 5769 5770 5766 5769 5770 5774 5773 5775 5775 5776 5775 5774 5772 5771 5769 5765 5761 5756 5754 5754 5749 5747 5745 5739 5735 5726 5724 5721 5719 5718 5715 5711
Wind_Speed
29 30 25 19 18 21 22 15 4 8 12 12 11 11 9 9 16 9 7 6 3 2 1 2 4 5 5 4 5 5 5 5 5 6 7 7 6 8 9 11 12 11 12 12
30 31 23 19 23 29 26 21 13 5 12 20 19 14 10 10 9 3 2 4 3 3 3 2 3 4 5 4 3 3 3 4 4 5 6 7 9 10 12 13 14 13 13 13
26 23 29 27 32 31 26 23 21 5 16 23 22 21 17 13 7 4 9 10 12 7 8 7 7 6 5 4 1 2 4 5 5 6 7 8 10 12 14 15 16 17 17 17
29 32 37 34 30 32 31 21 11 14 24 30 21 22 25 19 13 7 10 20 20 6 9 12 10 7 5 4 4 5 8 8 9 10 11 12 13 14 15 15 17 18 19 21
29 36 35 37 31 36 29 22 15 20 22 22 25 27 19 21 18 11 16 11 11 15 13 12 12 11 9 9 9 11 12 13 13 14 16 18 18 19 19 18 19 20 20 22
35 36 37 34 34 40 34 26 27 24 25 28 26 23 26 27 27 19 20 17 14 12 9 11 13 12 13 13 15 17 18 18 19 19 19 22 24 22 20 21 23 26 26 26
42 43 40 36 40 42 42 32 34 38 36 34 25 29 27 30 31 23 23 18 16 15 11 15 17 16 17 21 20 21 23 23 24 22 21 20 22 22 21 24 26 27 27 27
45 46 44 41 42 37 38 35 35 39 48 45 34 39 15 14 17 19 26 19 15 13 7 10 11 14 12 17 21 23 23 22 20 19 17 19 19 19 23 26 28 29 29 29
48 46 42 42 40 34 37 42 34 33 35 23 26 22 15 20 17 18 21 19 15 15 14 13 9 12 15 16 23 22 22 22 21 20 21 19 20 19 21 25 28 29 29 29
44 43 40 34 32 29 30 24 30 36 31 30 29 23 23 15 18 16 17 17 18 23 18 20 10 7 8 12 17 22 24 23 24 23 25 25 24 24 23 24 27 31 30 28
41 40 40 39 38 31 27 31 28 28 28 36 26 23 21 19 22 17 17 16 22 25 19 15 11 10 11 12 15 22 24 24 26 28 28 30 27 27 27 23 27 29 28 27
42 41 43 44 34 30 24 32 34 35 38 32 33 26 27 23 24 17 14 18 23 28 23 14 11 17 18 23 21 22 24 27 30 34 32 32 29 30 29 27 26 28 29 30
34 44 42 42 39 30 27 32 35 33 36 34 35 34 30 28 27 25 21 25 26 25 28 30 18 20 21 23 26 26 23 27 31 34 33 31 31 31 31 30 29 30 32 34
13 46 45 46 39 33 34 31 28 29 36 34 34 32 35 32 26 27 30 34 29 29 24 19 23 21 25 26 26 33 30 27 30 32 29 31 32 32 33 33 30 32 34 36
27 44 45 44 33 31 37 38 30 31 33 31 25 28 38 34 28 29 33 29 32 32 35 27 24 28 33 33 31 32 33 31 33 33 32 33 34 34 34 35 33 34 37 38
39 26 47 48 39 25 31 39 39 27 28 28 34 31 32 32 28 29 35 38 42 35 33 36 35 37 36 34 34 36 33 32 36 36 37 37 36 35 36 38 35 36 38 39
41 35 48 48 39 33 38 46 41 39 44 34 40 32 30 33 34 37 43 45 45 44 44 44 36 35 37 44 42 41 34 33 35 37 36 35 37 39 37 39 38 39 40 41
41 40 32 48 41 42 38 39 32 27 29 29 24 22 27 30 31 32 37 43 44 48 44 42 41 42 41 44 44 42 34 34 37 38 36 37 37 40 38 39 41 41 42 40
38 45 41 42 46 43 44 40 33 35 35 33 34 35 29 37 37 42 40 41 49 47 47 44 41 39 38 38 39 42 37 39 40 37 34 38 39 40 39 41 42 43 42 37
37 36 46 50 46 46 49 50 49 41 38 38 38 37 35 34 38 42 47 51 49 44 45 44 38 43 47 43 49 47 41 43 43 40 39 41 40 40 42 42 44 42 39 34
41 43 38 40 48 49 48 52 52 50 52 49 42 39 35 41 34 41 45 43 43 43 45 41 40 37 44 41 41 42 43 42 43 42 43 44 45 42 46 46 45 43 35 37
50 48 44 44 40 46 48 50 53 56 52 52 50 44 45 36 39 47 47 51 52 44 41 40 40 41 34 37 36 39 40 39 40 41 42 46 58 56 52 52 44 39 33 39
45 47 51 53 50 50 48 48 49 53 50 48 53 36 42 46 42 39 42 42 46 39 46 45 44 48 47 38 38 38 38 40 40 43 48 48 51 46 30 38 37 41 37 47
50 53 47 49 55 50 52 49 49 50 52 52 38 36 38 42 45 56 54 54 43 32 37 45 46 42 48 49 42 39 38 36 41 40 45 44 45 51 49 34 28 37 45 46
46 41 42 25 47 51 42 40 47 50 43 51 42 35 37 36 41 46 54 52 51 34 39 45 45 48 48 46 45 41 40 40 44 43 45 51 55 52 54 49 45 48 46 45
43 40 37 40 35 32 31 26 26 32 35 39 41 39 45 52 41 43 49 44 38 45 49 45 47 47 44 43 42 44 43 42 42 46 48 53 57 53 60 58 53 47 45 47
Wind_Direction
212 209 212 219 233 185 173 210 259 3 335 320 322 327 325 338 326 324 291 242 245 263 122 118 132 126 136 126 110 98 70 54 48 37 25 9 359 2 6 9 11 12 9 357
208 207 208 206 191 172 171 189 210 301 290 305 301 301 297 337 306 196 199 304 358 288 263 178 175 163 143 136 121 90 60 34 22 6 5 356 343 338 337 346 345 351 353 352
209 198 203 206 184 173 175 194 225 270 265 267 279 290 284 297 265 231 294 279 290 242 233 231 220 189 173 190 187 351 326 309 312 318 326 326 332 331 326 328 330 332 333 333
211 197 205 208 202 183 186 184 211 244 250 251 283 293 286 290 282 265 308 307 302 250 242 225 228 231 220 234 249 261 267 280 293 307 310 316 314 309 307 313 319 322 324 324
210 210 212 213 199 193 171 183 220 240 240 250 256 265 285 284 292 315 323 325 291 299 278 243 230 236 251 260 261 266 266 276 286 300 309 306 298 295 296 306 314 315 316 318
209 211 215 215 198 195 176 195 212 234 241 245 255 262 270 276 291 292 297 298 307 317 265 268 272 251 243 252 264 266 268 271 275 280 288 290 288 293 297 304 307 309 313 315
204 207 211 209 207 203 191 203 211 218 233 242 250 256 267 282 283 282 287 311 297 285 258 261 284 292 261 265 270 279 279 278 284 288 285 285 286 295 306 306 306 307 310 310
210 209 207 208 213 206 194 205 220 226 218 223 233 245 264 276 271 265 271 296 303 346 326 272 271 267 260 271 277 277 281 283 292 293 291 291 291 293 299 301 304 304 304 304
214 214 210 209 211 207 204 213 224 233 228 220 213 240 269 253 261 259 276 292 307 332 336 337 292 260 240 262 278 287 292 299 303 301 300 299 296 294 298 301 301 300 302 304
218 218 211 205 196 200 216 224 232 210 215 218 221 241 264 257 267 265 270 285 301 312 331 324 325 304 272 269 287 293 294 298 300 299 300 298 298 298 300 299 298 300 301 306
215 221 206 190 199 201 211 223 215 231 219 221 230 235 259 260 254 251 277 279 296 300 320 316 340 324 297 290 284 282 285 292 298 300 297 294 296 298 297 298 296 296 301 308
210 218 202 208 198 203 219 219 214 230 232 243 235 236 249 254 256 262 269 280 287 299 298 310 315 337 341 329 316 285 281 287 291 293 293 288 292 292 295 295 300 300 308 309
210 217 207 199 198 200 216 234 225 230 234 238 232 238 246 255 272 257 279 283 284 293 304 315 315 324 317 330 333 325 299 284 283 284 284 286 285 289 295 302 304 306 308 308
211 212 212 208 207 204 209 228 232 243 246 232 227 234 247 252 265 272 277 282 290 303 300 304 297 301 320 329 335 330 320 299 285 285 289 289 288 290 296 299 303 304 305 304
226 218 211 197 192 206 216 234 233 239 229 235 250 247 247 257 267 279 279 284 291 288 299 304 303 301 312 315 324 320 312 300 289 284 283 281 284 290 294 297 300 302 302 300
208 221 208 197 198 219 231 224 234 227 229 235 243 249 234 252 263 270 280 281 287 284 290 286 287 297 303 309 321 318 304 292 284 282 282 274 277 280 287 293 299 299 296 297
212 211 211 209 207 211 219 215 216 220 217 218 234 238 241 248 262 267 267 271 278 287 282 289 292 301 302 316 308 311 303 293 284 284 286 276 276 279 283 288 295 292 293 297
212 206 212 215 211 216 226 228 204 209 226 227 239 242 244 256 258 259 261 268 273 273 278 282 292 297 301 310 304 301 294 283 279 280 278 277 277 277 281 284 286 288 292 302
206 208 209 217 219 217 226 231 238 243 231 235 247 240 241 243 254 246 249 253 258 262 270 277 282 283 285 302 311 304 295 283 280 281 280 278 277 278 276 277 281 284 297 304
210 207 216 219 222 225 228 232 232 235 245 248 249 255 256 243 251 252 250 259 268 268 268 270 275 297 297 290 293 297 289 287 287 283 282 280 282 278 273 276 279 288 296 298
207 209 208 219 222 228 229 233 233 236 241 247 249 247 247 249 242 244 253 265 272 267 269 280 287 288 289 289 296 289 288 285 283 286 287 285 278 275 271 271 276 287 294 302
209 204 205 205 216 221 230 236 239 241 245 246 237 238 243 241 251 259 265 266 261 263 271 277 278 294 283 289 284 284 284 286 287 291 295 302 300 261 253 259 269 277 284 301
224 225 209 210 217 224 229 233 240 248 247 241 239 246 261 265 266 254 256 254 254 267 272 283 294 292 291 292 296 294 290 290 286 289 290 294 313 251 253 298 300 276 284 307
226 228 238 234 217 221 227 228 232 234 238 238 257 260 267 265 261 268 267 274 260 279 290 286 290 290 297 297 293 288 285 288 287 290 291 299 296 272 292 302 269 297 313 313
228 228 238 230 238 236 233 235 240 229 239 237 262 262 264 262 266 269 270 261 283 277 268 283 290 295 295 289 287 284 285 286 283 288 293 289 297 294 289 287 302 315 313 307
241 245 259 242 241 247 246 253 271 271 268 267 260 266 270 264 274 276 271 262 268 273 282 285 287 288 283 286 289 291 294 296 293 294 289 294 291 292 291 302 309 309 310 314